Time,TemperatureF,DewpointF,PressureIn,WindDirection,WindDirectionDegrees,WindSpeedMPH,WindSpeedGustMPH,Humidity,HourlyPrecipIn,Conditions,Clouds,dailyrainin,SoftwareType,DateUTC
2013-03-16 00:01:00,47.5,45.3,29.63,West,270,4.0,8.0,92,0.00,,,0.00,meteohub,2013-03-16 07:01:00,
2013-03-16 00:06:00,47.1,45.1,29.63,West,270,4.0,8.0,93,0.00,,,0.00,meteohub,2013-03-16 07:06:00,
2013-03-16 00:11:00,47.1,45.1,29.63,SW,225,4.0,5.0,93,0.00,,,0.00,meteohub,2013-03-16 07:11:00,
2013-03-16 00:17:00,47.1,45.1,29.64,SW,225,6.0,6.0,93,0.00,,,0.00,meteohub,2013-03-16 07:17:00,
2013-03-16 00:22:00,46.9,45.3,29.63,SW,225,5.0,7.0,94,0.00,,,0.00,meteohub,2013-03-16 07:22:00,
2013-03-16 00:27:00,46.8,45.1,29.63,South,180,3.0,7.0,94,0.00,,,0.00,meteohub,2013-03-16 07:27:00,
2013-03-16 00:32:00,46.4,44.4,29.63,West,270,0.0,7.0,93,0.00,,,0.00,meteohub,2013-03-16 07:32:00,
2013-03-16 00:37:00,46.4,44.8,29.64,West,270,3.0,6.0,94,0.00,,,0.00,meteohub,2013-03-16 07:37:00,
2013-03-16 00:42:00,46.4,44.8,29.64,West,270,3.0,4.0,94,0.00,,,0.00,meteohub,2013-03-16 07:42:00,
2013-03-16 00:47:00,46.2,44.6,29.64,West,270,3.0,4.0,94,0.00,,,0.00,meteohub,2013-03-16 07:47:00,
2013-03-16 00:52:00,46.2,44.6,29.64,SW,225,4.0,4.0,94,0.00,,,0.00,meteohub,2013-03-16 07:52:00,
2013-03-16 00:57:00,46.2,44.8,29.64,SW,225,4.0,4.0,95,0.00,,,0.00,meteohub,2013-03-16 07:57:00,
2013-03-16 01:02:00,46.0,44.6,29.64,SW,225,2.0,4.0,95,0.00,,,0.00,meteohub,2013-03-16 08:02:00,
2013-03-16 01:07:00,46.0,44.6,29.64,SW,225,3.0,4.0,95,0.00,,,0.00,meteohub,2013-03-16 08:07:00,
2013-03-16 01:12:00,46.0,44.6,29.64,SW,225,3.0,4.0,95,0.00,,,0.00,meteohub,2013-03-16 08:12:00,
2013-03-16 01:17:00,46.0,44.6,29.64,SW,225,3.0,4.0,95,0.00,,,0.00,meteohub,2013-03-16 08:17:00,
2013-03-16 01:23:00,46.0,44.6,29.64,SW,225,2.0,4.0,95,0.00,,,0.00,meteohub,2013-03-16 08:23:00,
2013-03-16 01:28:00,45.9,44.2,29.63,SW,225,0.0,4.0,94,0.00,,,0.00,meteohub,2013-03-16 08:28:00,
2013-03-16 01:33:00,45.7,44.1,29.64,SW,225,0.0,4.0,94,0.00,,,0.00,meteohub,2013-03-16 08:33:00,
2013-03-16 01:38:00,45.5,44.2,29.64,West,270,3.0,4.0,95,0.00,,,0.00,meteohub,2013-03-16 08:38:00,
2013-03-16 01:43:00,46.0,45.0,29.64,SW,225,2.0,4.0,96,0.00,,,0.00,meteohub,2013-03-16 08:43:00,
2013-03-16 01:48:00,46.2,45.1,29.64,SW,225,2.0,4.0,96,0.00,,,0.00,meteohub,2013-03-16 08:48:00,
2013-03-16 01:54:00,46.4,45.0,29.64,SW,225,3.0,4.0,95,0.00,,,0.00,meteohub,2013-03-16 08:54:00,
2013-03-16 01:59:00,46.4,45.0,29.64,SW,225,4.0,4.0,95,0.00,,,0.00,meteohub,2013-03-16 08:59:00,
2013-03-16 02:04:00,46.8,45.3,29.64,SW,225,4.0,4.0,95,0.00,,,0.00,meteohub,2013-03-16 09:04:00,
2013-03-16 02:09:00,46.8,45.3,29.64,SW,225,4.0,4.0,95,0.00,,,0.00,meteohub,2013-03-16 09:09:00,
2013-03-16 02:14:00,46.9,45.3,29.64,SW,225,4.0,4.0,94,0.00,,,0.00,meteohub,2013-03-16 09:14:00,
2013-03-16 02:19:00,46.9,45.3,29.63,SW,225,6.0,6.0,94,0.00,,,0.00,meteohub,2013-03-16 09:19:00,
2013-03-16 02:24:00,47.1,45.5,29.64,SW,225,3.0,7.0,94,0.00,,,0.00,meteohub,2013-03-16 09:24:00,
2013-03-16 02:30:00,47.1,45.5,29.65,SW,225,4.0,7.0,94,0.00,,,0.00,meteohub,2013-03-16 09:30:00,
2013-03-16 02:35:00,47.1,45.1,29.65,SW,225,4.0,7.0,93,0.00,,,0.00,meteohub,2013-03-16 09:35:00,
2013-03-16 02:40:00,46.9,45.3,29.65,SW,225,1.0,4.0,94,0.00,,,0.00,meteohub,2013-03-16 09:40:00,
2013-03-16 02:45:00,46.8,45.1,29.64,SW,225,2.0,4.0,94,0.00,,,0.00,meteohub,2013-03-16 09:45:00,
2013-03-16 02:50:00,46.8,45.1,29.64,South,180,2.0,4.0,94,0.00,,,0.00,meteohub,2013-03-16 09:50:00,
2013-03-16 02:55:00,46.8,45.1,29.65,South,180,1.0,3.0,94,0.00,,,0.00,meteohub,2013-03-16 09:55:00,
2013-03-16 03:00:00,46.6,45.0,29.63,SW,225,0.0,2.0,94,0.00,,,0.00,meteohub,2013-03-16 10:00:00,
2013-03-16 03:06:00,46.4,44.8,29.63,East,90,0.0,2.0,94,0.00,,,0.00,meteohub,2013-03-16 10:06:00,
2013-03-16 03:11:00,46.4,45.0,29.64,East,90,0.0,1.0,95,0.00,,,0.00,meteohub,2013-03-16 10:11:00,
2013-03-16 03:16:00,46.2,44.8,29.63,South,180,1.0,0.0,95,0.00,,,0.00,meteohub,2013-03-16 10:16:00,
2013-03-16 03:21:00,46.2,45.1,29.64,SW,225,2.0,2.0,96,0.00,,,0.00,meteohub,2013-03-16 10:21:00,
2013-03-16 03:26:00,46.4,45.3,29.64,SW,225,3.0,3.0,96,0.00,,,0.00,meteohub,2013-03-16 10:26:00,
2013-03-16 03:31:00,46.4,45.3,29.63,SW,225,3.0,4.0,96,0.00,,,0.00,meteohub,2013-03-16 10:31:00,
2013-03-16 03:36:00,46.4,45.3,29.63,SW,225,3.0,4.0,96,0.00,,,0.00,meteohub,2013-03-16 10:36:00,
2013-03-16 03:41:00,46.6,45.5,29.63,SW,225,3.0,4.0,96,0.00,,,0.00,meteohub,2013-03-16 10:41:00,
2013-03-16 03:47:00,46.6,45.5,29.63,SW,225,4.0,4.0,96,0.00,,,0.00,meteohub,2013-03-16 10:47:00,
2013-03-16 03:52:00,46.8,45.7,29.64,SW,225,4.0,4.0,96,0.00,,,0.00,meteohub,2013-03-16 10:52:00,
2013-03-16 03:57:00,46.8,45.3,29.64,West,270,1.0,4.0,95,0.00,,,0.00,meteohub,2013-03-16 10:57:00,
2013-03-16 04:02:00,46.8,45.3,29.63,SW,225,2.0,4.0,95,0.00,,,0.00,meteohub,2013-03-16 11:02:00,
2013-03-16 04:07:00,46.8,45.3,29.63,SW,225,2.0,4.0,95,0.00,,,0.00,meteohub,2013-03-16 11:07:00,
2013-03-16 04:12:00,46.9,45.5,29.63,SW,225,3.0,4.0,95,0.00,,,0.00,meteohub,2013-03-16 11:12:00,
2013-03-16 04:17:00,46.8,45.3,29.63,North,0,4.0,4.0,95,0.00,,,0.00,meteohub,2013-03-16 11:17:00,
2013-03-16 04:22:00,46.8,45.3,29.63,SW,225,4.0,4.0,95,0.00,,,0.00,meteohub,2013-03-16 11:22:00,
2013-03-16 04:27:00,46.8,45.3,29.63,SW,225,2.0,4.0,95,0.00,,,0.00,meteohub,2013-03-16 11:27:00,
2013-03-16 04:32:00,46.8,45.3,29.63,SW,225,2.0,4.0,95,0.00,,,0.00,meteohub,2013-03-16 11:32:00,
2013-03-16 04:37:00,46.8,45.3,29.63,SW,225,3.0,4.0,95,0.00,,,0.00,meteohub,2013-03-16 11:37:00,
2013-03-16 04:42:00,46.8,45.3,29.62,SW,225,2.0,4.0,95,0.00,,,0.00,meteohub,2013-03-16 11:42:00,
2013-03-16 04:47:00,46.4,44.8,29.62,SW,225,0.0,3.0,94,0.00,,,0.00,meteohub,2013-03-16 11:47:00,
2013-03-16 04:52:00,46.2,44.6,29.62,SW,225,0.0,3.0,94,0.00,,,0.00,meteohub,2013-03-16 11:52:00,
2013-03-16 04:57:00,46.0,44.6,29.62,SW,225,1.0,2.0,95,0.00,,,0.00,meteohub,2013-03-16 11:57:00,
2013-03-16 05:02:00,46.0,44.6,29.62,SW,225,0.0,2.0,95,0.00,,,0.00,meteohub,2013-03-16 12:02:00,
2013-03-16 05:07:00,45.9,44.4,29.62,SW,225,0.0,2.0,95,0.00,,,0.00,meteohub,2013-03-16 12:07:00,
2013-03-16 05:12:00,45.5,44.2,29.61,SW,225,0.0,2.0,95,0.00,,,0.00,meteohub,2013-03-16 12:12:00,
2013-03-16 05:18:00,45.3,44.1,29.62,SW,225,0.0,0.0,95,0.00,,,0.00,meteohub,2013-03-16 12:18:00,
2013-03-16 05:23:00,45.1,44.1,29.61,SW,225,2.0,2.0,96,0.00,,,0.00,meteohub,2013-03-16 12:23:00,
2013-03-16 05:29:00,44.8,43.7,29.61,SW,225,2.0,3.0,96,0.00,,,0.00,meteohub,2013-03-16 12:29:00,
2013-03-16 05:34:00,45.0,44.4,29.61,SW,225,4.0,4.0,98,0.00,,,0.00,meteohub,2013-03-16 12:34:00,
2013-03-16 05:39:00,45.1,44.6,29.61,SW,225,3.0,4.0,98,0.00,,,0.00,meteohub,2013-03-16 12:39:00,
2013-03-16 05:44:00,45.0,44.4,29.61,SW,225,3.0,4.0,98,0.00,,,0.00,meteohub,2013-03-16 12:44:00,
2013-03-16 05:49:00,45.0,44.4,29.60,SW,225,3.0,4.0,98,0.00,,,0.00,meteohub,2013-03-16 12:49:00,
2013-03-16 05:54:00,45.1,45.0,29.60,SW,225,2.0,4.0,99,0.00,,,0.00,meteohub,2013-03-16 12:54:00,
2013-03-16 05:59:00,45.1,44.6,29.60,SW,225,2.0,4.0,98,0.00,,,0.00,meteohub,2013-03-16 12:59:00,
2013-03-16 06:05:00,45.1,44.6,29.60,SW,225,2.0,4.0,98,0.00,,,0.00,meteohub,2013-03-16 13:05:00,
2013-03-16 06:10:00,45.1,44.6,29.60,SE,135,0.0,3.0,98,0.00,,,0.00,meteohub,2013-03-16 13:10:00,
2013-03-16 06:15:00,45.0,44.4,29.60,East,90,0.0,2.0,98,0.00,,,0.00,meteohub,2013-03-16 13:15:00,
2013-03-16 06:20:00,44.8,44.2,29.60,West,270,0.0,2.0,98,0.00,,,0.00,meteohub,2013-03-16 13:20:00,
2013-03-16 06:25:00,44.8,44.2,29.60,West,270,3.0,4.0,98,0.00,,,0.00,meteohub,2013-03-16 13:25:00,
2013-03-16 06:30:00,44.6,44.1,29.59,SW,225,2.0,4.0,98,0.00,,,0.00,meteohub,2013-03-16 13:30:00,
2013-03-16 06:35:00,44.4,43.9,29.59,SW,225,0.0,4.0,98,0.00,,,0.00,meteohub,2013-03-16 13:35:00,
2013-03-16 06:40:00,44.2,43.7,29.59,SW,225,2.0,3.0,98,0.00,,,0.00,meteohub,2013-03-16 13:40:00,
2013-03-16 06:46:00,44.1,43.3,29.59,SW,225,1.0,2.0,97,0.00,,,0.00,meteohub,2013-03-16 13:46:00,
2013-03-16 06:51:00,43.9,43.3,29.59,South,180,0.0,2.0,98,0.00,,,0.00,meteohub,2013-03-16 13:51:00,
2013-03-16 06:56:00,43.9,43.3,29.58,SE,135,0.0,2.0,98,0.00,,,0.00,meteohub,2013-03-16 13:56:00,
2013-03-16 07:02:00,43.9,43.3,29.58,SW,225,0.0,1.0,98,0.00,,,0.00,meteohub,2013-03-16 14:02:00,
2013-03-16 07:07:00,44.1,43.9,29.58,SW,225,3.0,3.0,99,0.00,,,0.00,meteohub,2013-03-16 14:07:00,
2013-03-16 07:12:00,44.6,44.4,29.58,SW,225,3.0,4.0,99,0.00,,,0.00,meteohub,2013-03-16 14:12:00,
2013-03-16 07:17:00,44.6,44.4,29.58,SW,225,4.0,4.0,99,0.00,,,0.00,meteohub,2013-03-16 14:17:00,
2013-03-16 07:22:00,44.6,44.4,29.59,SW,225,4.0,4.0,99,0.00,,,0.00,meteohub,2013-03-16 14:22:00,
2013-03-16 07:28:00,44.6,44.1,29.59,SW,225,2.0,4.0,98,0.00,,,0.00,meteohub,2013-03-16 14:28:00,
2013-03-16 07:33:00,44.8,44.2,29.58,West,270,4.0,4.0,98,0.00,,,0.00,meteohub,2013-03-16 14:33:00,
2013-03-16 07:38:00,45.0,44.4,29.59,South,180,2.0,4.0,98,0.00,,,0.00,meteohub,2013-03-16 14:38:00,
2013-03-16 07:43:00,45.1,44.6,29.59,SW,225,2.0,4.0,98,0.00,,,0.00,meteohub,2013-03-16 14:43:00,
2013-03-16 07:48:00,45.3,44.8,29.59,West,270,3.0,4.0,98,0.00,,,0.00,meteohub,2013-03-16 14:48:00,
2013-03-16 07:53:00,45.5,44.8,29.59,South,180,2.0,4.0,97,0.00,,,0.00,meteohub,2013-03-16 14:53:00,
2013-03-16 07:59:00,45.7,45.0,29.59,West,270,4.0,4.0,97,0.00,,,0.00,meteohub,2013-03-16 14:59:00,
2013-03-16 08:04:00,45.7,44.6,29.58,SW,225,4.0,4.0,96,0.00,,,0.00,meteohub,2013-03-16 15:04:00,
2013-03-16 08:09:00,45.5,44.4,29.59,SW,225,6.0,6.0,96,0.00,,,0.00,meteohub,2013-03-16 15:09:00,
2013-03-16 08:14:00,45.7,44.4,29.59,SW,225,6.0,7.0,95,0.00,,,0.00,meteohub,2013-03-16 15:14:00,
2013-03-16 08:19:00,45.9,44.2,29.60,SW,225,6.0,7.0,94,0.00,,,0.00,meteohub,2013-03-16 15:19:00,
2013-03-16 08:25:00,46.0,44.1,29.60,SW,225,7.0,8.0,93,0.00,,,0.00,meteohub,2013-03-16 15:25:00,
2013-03-16 08:30:00,46.2,43.7,29.60,SW,225,11.0,11.0,91,0.00,,,0.00,meteohub,2013-03-16 15:30:00,
2013-03-16 08:35:00,46.4,44.2,29.60,SW,225,4.0,14.0,92,0.00,,,0.00,meteohub,2013-03-16 15:35:00,
2013-03-16 08:40:00,46.6,43.9,29.60,SW,225,11.0,14.0,90,0.00,,,0.00,meteohub,2013-03-16 15:40:00,
2013-03-16 08:46:00,46.8,44.1,29.60,South,180,8.0,14.0,90,0.00,,,0.00,meteohub,2013-03-16 15:46:00,
2013-03-16 08:51:00,46.8,44.1,29.60,West,270,8.0,15.0,90,0.00,,,0.00,meteohub,2013-03-16 15:51:00,
2013-03-16 08:56:00,46.8,44.1,29.60,SW,225,8.0,15.0,90,0.00,,,0.00,meteohub,2013-03-16 15:56:00,
2013-03-16 09:02:00,46.9,44.2,29.60,SW,225,5.0,15.0,90,0.00,,,0.00,meteohub,2013-03-16 16:02:00,
2013-03-16 09:07:00,46.9,44.2,29.60,West,270,4.0,10.0,90,0.00,,,0.00,meteohub,2013-03-16 16:07:00,
2013-03-16 09:12:00,47.1,44.4,29.60,West,270,5.0,8.0,90,0.00,,,0.00,meteohub,2013-03-16 16:12:00,
2013-03-16 09:17:00,47.1,44.1,29.60,SW,225,7.0,8.0,89,0.00,,,0.00,meteohub,2013-03-16 16:17:00,
2013-03-16 09:22:00,47.3,44.2,29.61,SW,225,7.0,10.0,89,0.00,,,0.00,meteohub,2013-03-16 16:22:00,
2013-03-16 09:27:00,47.7,44.6,29.60,West,270,3.0,10.0,89,0.00,,,0.00,meteohub,2013-03-16 16:27:00,
2013-03-16 09:32:00,47.8,44.4,29.60,West,270,3.0,10.0,88,0.00,,,0.00,meteohub,2013-03-16 16:32:00,
2013-03-16 09:37:00,47.8,44.4,29.61,SW,225,5.0,8.0,88,0.00,,,0.00,meteohub,2013-03-16 16:37:00,
2013-03-16 09:42:00,47.7,44.2,29.62,North,0,5.0,7.0,88,0.00,,,0.00,meteohub,2013-03-16 16:42:00,
2013-03-16 09:47:00,47.5,44.4,29.61,SW,225,4.0,7.0,89,0.00,,,0.00,meteohub,2013-03-16 16:47:00,
2013-03-16 09:52:00,47.7,45.0,29.61,West,270,6.0,7.0,90,0.00,,,0.00,meteohub,2013-03-16 16:52:00,
2013-03-16 09:57:00,47.7,45.0,29.61,SW,225,2.0,6.0,90,0.00,,,0.00,meteohub,2013-03-16 16:57:00,
2013-03-16 10:02:00,47.8,45.0,29.60,South,180,2.0,6.0,90,0.00,,,0.00,meteohub,2013-03-16 17:02:00,
2013-03-16 10:07:00,48.2,45.1,29.61,South,180,2.0,6.0,89,0.00,,,0.00,meteohub,2013-03-16 17:07:00,
2013-03-16 10:13:00,48.4,45.3,29.60,East,90,2.0,6.0,89,0.00,,,0.00,meteohub,2013-03-16 17:13:00,
2013-03-16 10:18:00,48.7,45.7,29.60,East,90,2.0,4.0,89,0.00,,,0.00,meteohub,2013-03-16 17:18:00,
2013-03-16 10:23:00,48.7,45.3,29.59,East,90,2.0,3.0,88,0.00,,,0.00,meteohub,2013-03-16 17:23:00,
2013-03-16 10:28:00,48.9,45.5,29.59,North,0,2.0,4.0,88,0.00,,,0.00,meteohub,2013-03-16 17:28:00,
2013-03-16 10:33:00,49.3,45.9,29.59,SE,135,2.0,4.0,88,0.00,,,0.00,meteohub,2013-03-16 17:33:00,
2013-03-16 10:38:00,49.3,45.5,29.59,South,180,2.0,4.0,87,0.00,,,0.00,meteohub,2013-03-16 17:38:00,
2013-03-16 10:43:00,49.5,45.5,29.60,SW,225,4.0,4.0,86,0.00,,,0.00,meteohub,2013-03-16 17:43:00,
2013-03-16 10:49:00,49.8,45.5,29.60,South,180,4.0,4.0,85,0.00,,,0.00,meteohub,2013-03-16 17:49:00,
2013-03-16 10:54:00,49.6,45.3,29.60,SW,225,4.0,4.0,85,0.00,,,0.00,meteohub,2013-03-16 17:54:00,
2013-03-16 10:59:00,49.6,45.0,29.60,SSW,203,3.0,5.0,84,0.00,,,0.00,meteohub,2013-03-16 17:59:00,
2013-03-16 11:04:00,49.6,44.8,29.60,South,180,3.0,5.0,83,0.00,,,0.00,meteohub,2013-03-16 18:04:00,
2013-03-16 11:09:00,49.6,44.1,29.60,SW,225,4.0,7.0,81,0.00,,,0.00,meteohub,2013-03-16 18:09:00,
2013-03-16 11:14:00,49.8,44.2,29.60,SW,225,5.0,9.0,81,0.00,,,0.00,meteohub,2013-03-16 18:14:00,
2013-03-16 11:20:00,49.8,44.2,29.59,South,180,4.0,9.0,81,0.00,,,0.00,meteohub,2013-03-16 18:20:00,
2013-03-16 11:25:00,50.0,44.1,29.60,South,180,4.0,10.0,80,0.00,,,0.00,meteohub,2013-03-16 18:25:00,
2013-03-16 11:30:00,50.0,44.1,29.60,South,180,4.0,10.0,80,0.00,,,0.00,meteohub,2013-03-16 18:30:00,
2013-03-16 11:35:00,50.0,43.7,29.59,SW,225,3.0,10.0,79,0.00,,,0.00,meteohub,2013-03-16 18:35:00,
2013-03-16 11:40:00,49.6,43.3,29.59,SW,225,5.0,8.0,79,0.00,,,0.00,meteohub,2013-03-16 18:40:00,
2013-03-16 11:45:00,49.6,43.7,29.60,SW,225,6.0,8.0,80,0.00,,,0.00,meteohub,2013-03-16 18:45:00,
2013-03-16 11:51:00,49.1,43.9,29.59,SW,225,5.0,8.0,82,0.00,,,0.00,meteohub,2013-03-16 18:51:00,
2013-03-16 11:56:00,48.0,44.1,29.59,SW,225,5.0,8.0,86,0.00,,,0.00,meteohub,2013-03-16 18:56:00,
2013-03-16 12:01:00,47.3,44.2,29.60,SW,225,5.0,8.0,89,0.01,,,0.01,meteohub,2013-03-16 19:01:00,
2013-03-16 12:06:00,46.9,44.8,29.59,SW,225,3.0,8.0,92,0.01,,,0.01,meteohub,2013-03-16 19:06:00,
2013-03-16 12:11:00,47.1,45.1,29.59,SW,225,3.0,8.0,93,0.01,,,0.01,meteohub,2013-03-16 19:11:00,
2013-03-16 12:17:00,47.3,45.7,29.59,SW,225,2.0,8.0,94,0.01,,,0.01,meteohub,2013-03-16 19:17:00,
2013-03-16 12:22:00,47.7,46.0,29.59,SW,225,4.0,4.0,94,0.01,,,0.01,meteohub,2013-03-16 19:22:00,
2013-03-16 12:27:00,47.5,45.9,29.59,SW,225,4.0,4.0,94,0.01,,,0.01,meteohub,2013-03-16 19:27:00,
2013-03-16 12:32:00,47.7,46.0,29.58,SW,225,0.0,4.0,94,0.02,,,0.02,meteohub,2013-03-16 19:32:00,
2013-03-16 12:37:00,47.8,46.2,29.58,SW,225,1.0,4.0,94,0.02,,,0.02,meteohub,2013-03-16 19:37:00,
2013-03-16 12:42:00,48.2,46.8,29.58,SW,225,4.0,4.0,95,0.02,,,0.02,meteohub,2013-03-16 19:42:00,
2013-03-16 12:47:00,47.8,45.9,29.58,SW,225,5.0,5.0,93,0.04,,,0.04,meteohub,2013-03-16 19:47:00,
2013-03-16 12:52:00,47.8,46.2,29.58,SW,225,2.0,7.0,94,0.04,,,0.04,meteohub,2013-03-16 19:52:00,
2013-03-16 12:57:00,47.7,46.0,29.57,SW,225,2.0,7.0,94,0.04,,,0.04,meteohub,2013-03-16 19:57:00,
2013-03-16 13:02:00,48.0,46.4,29.57,SW,225,2.0,6.0,94,0.04,,,0.05,meteohub,2013-03-16 20:02:00,
2013-03-16 13:08:00,48.2,46.6,29.57,SW,225,2.0,4.0,94,0.04,,,0.05,meteohub,2013-03-16 20:08:00,
2013-03-16 13:13:00,48.7,47.1,29.57,SW,225,2.0,4.0,94,0.04,,,0.05,meteohub,2013-03-16 20:13:00,
2013-03-16 13:18:00,49.1,47.1,29.57,SW,225,2.0,4.0,93,0.04,,,0.05,meteohub,2013-03-16 20:18:00,
2013-03-16 13:23:00,48.9,46.8,29.57,SW,225,2.0,4.0,92,0.04,,,0.05,meteohub,2013-03-16 20:23:00,
2013-03-16 13:28:00,48.9,46.9,29.57,South,180,2.0,5.0,93,0.04,,,0.05,meteohub,2013-03-16 20:28:00,
2013-03-16 13:33:00,49.1,47.5,29.57,SW,225,3.0,5.0,94,0.02,,,0.05,meteohub,2013-03-16 20:33:00,
2013-03-16 13:39:00,48.9,46.9,29.57,SW,225,2.0,5.0,93,0.04,,,0.06,meteohub,2013-03-16 20:39:00,
2013-03-16 13:44:00,48.7,46.6,29.57,West,270,7.0,7.0,92,0.02,,,0.06,meteohub,2013-03-16 20:44:00,
2013-03-16 13:49:00,48.7,46.8,29.56,SW,225,11.0,11.0,93,0.02,,,0.06,meteohub,2013-03-16 20:49:00,
2013-03-16 13:54:00,48.2,46.0,29.56,SW,225,11.0,11.0,92,0.02,,,0.06,meteohub,2013-03-16 20:54:00,
2013-03-16 13:59:00,48.2,46.0,29.56,West,270,8.0,11.0,92,0.02,,,0.06,meteohub,2013-03-16 20:59:00,
2013-03-16 14:05:00,47.8,45.9,29.55,SW,225,5.0,11.0,93,0.01,,,0.06,meteohub,2013-03-16 21:05:00,
2013-03-16 14:10:00,47.7,45.7,29.55,SW,225,5.0,11.0,93,0.02,,,0.07,meteohub,2013-03-16 21:10:00,
2013-03-16 14:15:00,47.7,46.0,29.55,SW,225,3.0,10.0,94,0.02,,,0.07,meteohub,2013-03-16 21:15:00,
2013-03-16 14:20:00,48.0,46.4,29.55,SW,225,5.0,10.0,94,0.02,,,0.07,meteohub,2013-03-16 21:20:00,
2013-03-16 14:26:00,48.0,46.4,29.55,West,270,5.0,6.0,94,0.02,,,0.07,meteohub,2013-03-16 21:26:00,
2013-03-16 14:31:00,47.8,46.2,29.55,West,270,4.0,6.0,94,0.02,,,0.07,meteohub,2013-03-16 21:31:00,
2013-03-16 14:36:00,47.7,46.0,29.55,West,270,4.0,8.0,94,0.01,,,0.07,meteohub,2013-03-16 21:36:00,
2013-03-16 14:41:00,47.8,46.2,29.55,SW,225,6.0,8.0,94,0.01,,,0.07,meteohub,2013-03-16 21:41:00,
2013-03-16 14:47:00,48.4,46.8,29.55,SW,225,4.0,8.0,94,0.01,,,0.07,meteohub,2013-03-16 21:47:00,
2013-03-16 14:52:00,48.7,46.8,29.54,SW,225,5.0,8.0,93,0.01,,,0.07,meteohub,2013-03-16 21:52:00,
2013-03-16 14:57:00,49.5,47.3,29.54,SW,225,6.0,8.0,92,0.01,,,0.07,meteohub,2013-03-16 21:57:00,
2013-03-16 15:02:00,49.6,47.5,29.53,SW,225,2.0,8.0,92,0.02,,,0.08,meteohub,2013-03-16 22:02:00,
2013-03-16 15:07:00,50.2,47.3,29.53,NW,315,7.0,8.0,90,0.01,,,0.08,meteohub,2013-03-16 22:07:00,
2013-03-16 15:13:00,50.2,47.3,29.53,NW,315,2.0,7.0,90,0.01,,,0.08,meteohub,2013-03-16 22:13:00,
2013-03-16 15:18:00,50.7,47.7,29.53,SE,135,4.0,9.0,89,0.01,,,0.08,meteohub,2013-03-16 22:18:00,
2013-03-16 15:23:00,50.4,46.9,29.52,West,270,4.0,9.0,88,0.01,,,0.08,meteohub,2013-03-16 22:23:00,
2013-03-16 15:28:00,50.2,46.8,29.52,South,180,5.0,5.0,88,0.01,,,0.08,meteohub,2013-03-16 22:28:00,
2013-03-16 15:33:00,50.5,47.7,29.52,South,180,4.0,5.0,90,0.01,,,0.08,meteohub,2013-03-16 22:33:00,
2013-03-16 15:38:00,50.5,47.1,29.51,SW,225,4.0,5.0,88,0.01,,,0.08,meteohub,2013-03-16 22:38:00,
2013-03-16 15:43:00,50.0,46.9,29.51,South,180,3.0,5.0,89,0.01,,,0.08,meteohub,2013-03-16 22:43:00,
2013-03-16 15:48:00,49.6,46.8,29.51,South,180,2.0,6.0,90,0.01,,,0.08,meteohub,2013-03-16 22:48:00,
2013-03-16 15:53:00,49.6,46.8,29.50,SW,225,3.0,6.0,90,0.01,,,0.08,meteohub,2013-03-16 22:53:00,
2013-03-16 15:59:00,50.0,46.9,29.50,SW,225,4.0,6.0,89,0.01,,,0.08,meteohub,2013-03-16 22:59:00,
2013-03-16 16:04:00,49.8,46.4,29.50,West,270,4.0,4.0,88,0.00,,,0.08,meteohub,2013-03-16 23:04:00,
2013-03-16 16:09:00,49.6,46.8,29.50,SW,225,4.0,5.0,90,0.00,,,0.08,meteohub,2013-03-16 23:09:00,
2013-03-16 16:15:00,49.5,46.6,29.50,South,180,3.0,10.0,90,0.00,,,0.08,meteohub,2013-03-16 23:15:00,
2013-03-16 16:20:00,49.5,46.6,29.49,SW,225,7.0,10.0,90,0.00,,,0.08,meteohub,2013-03-16 23:20:00,
2013-03-16 16:25:00,49.5,46.6,29.49,West,270,4.0,7.0,90,0.00,,,0.08,meteohub,2013-03-16 23:25:00,
2013-03-16 16:30:00,49.3,46.8,29.49,South,180,4.0,7.0,91,0.00,,,0.08,meteohub,2013-03-16 23:30:00,
2013-03-16 16:35:00,49.3,47.1,29.49,SW,225,3.0,7.0,92,0.00,,,0.08,meteohub,2013-03-16 23:35:00,
2013-03-16 16:40:00,49.1,46.9,29.49,South,180,3.0,6.0,92,0.01,,,0.09,meteohub,2013-03-16 23:40:00,
2013-03-16 16:45:00,49.3,47.1,29.49,SW,225,4.0,4.0,92,0.01,,,0.09,meteohub,2013-03-16 23:45:00,
2013-03-16 16:50:00,49.1,46.9,29.49,SW,225,4.0,8.0,92,0.01,,,0.09,meteohub,2013-03-16 23:50:00,
2013-03-16 16:56:00,48.7,46.6,29.49,South,180,5.0,8.0,92,0.01,,,0.09,meteohub,2013-03-16 23:56:00,
2013-03-16 17:01:00,48.6,46.6,29.49,SE,135,4.0,8.0,93,0.01,,,0.09,meteohub,2013-03-17 00:01:00,
2013-03-16 17:07:00,48.6,46.9,29.49,SW,225,6.0,8.0,94,0.02,,,0.00,meteohub,2013-03-17 00:07:00,
2013-03-16 17:12:00,48.2,46.6,29.49,SW,225,7.0,8.0,94,0.02,,,0.00,meteohub,2013-03-17 00:12:00,
2013-03-16 17:17:00,48.2,46.8,29.49,West,270,4.0,8.0,95,0.02,,,0.00,meteohub,2013-03-17 00:17:00,
2013-03-16 17:22:00,48.2,46.8,29.49,SW,225,4.0,8.0,95,0.02,,,0.00,meteohub,2013-03-17 00:22:00,
2013-03-16 17:27:00,48.2,46.6,29.49,SW,225,10.0,10.0,94,0.02,,,0.00,meteohub,2013-03-17 00:27:00,
2013-03-16 17:32:00,47.8,45.9,29.50,West,270,11.0,11.0,93,0.02,,,0.00,meteohub,2013-03-17 00:32:00,
2013-03-16 17:37:00,47.5,45.5,29.50,SW,225,17.0,17.0,93,0.04,,,0.01,meteohub,2013-03-17 00:37:00,
2013-03-16 17:42:00,46.9,44.2,29.51,SW,225,19.0,19.0,90,0.02,,,0.01,meteohub,2013-03-17 00:42:00,
2013-03-16 17:47:00,46.0,42.6,29.51,SW,225,13.0,19.0,88,0.02,,,0.01,meteohub,2013-03-17 00:47:00,
2013-03-16 17:52:00,45.5,42.4,29.52,SW,225,6.0,22.0,89,0.02,,,0.01,meteohub,2013-03-17 00:52:00,
2013-03-16 17:57:00,45.1,42.6,29.52,SW,225,13.0,22.0,91,0.02,,,0.01,meteohub,2013-03-17 00:57:00,
2013-03-16 18:02:00,44.6,42.1,29.52,SW,225,11.0,22.0,91,0.02,,,0.02,meteohub,2013-03-17 01:02:00,
2013-03-16 18:07:00,44.1,41.0,29.52,SW,225,14.0,17.0,89,0.04,,,0.04,meteohub,2013-03-17 01:07:00,
2013-03-16 18:12:00,44.1,41.0,29.52,SW,225,13.0,17.0,89,0.04,,,0.04,meteohub,2013-03-17 01:12:00,
2013-03-16 18:17:00,43.7,40.6,29.51,SW,225,15.0,17.0,89,0.04,,,0.04,meteohub,2013-03-17 01:17:00,
2013-03-16 18:23:00,43.0,40.3,29.52,SW,225,8.0,15.0,90,0.04,,,0.04,meteohub,2013-03-17 01:23:00,
2013-03-16 18:28:00,42.8,39.6,29.52,SW,225,14.0,15.0,88,0.04,,,0.04,meteohub,2013-03-17 01:28:00,
2013-03-16 18:33:00,42.6,39.4,29.52,SW,225,8.0,15.0,88,0.02,,,0.04,meteohub,2013-03-17 01:33:00,
2013-03-16 18:38:00,42.4,39.4,29.52,SW,225,6.0,14.0,89,0.02,,,0.04,meteohub,2013-03-17 01:38:00,
2013-03-16 18:43:00,42.1,39.0,29.53,SW,225,8.0,14.0,89,0.02,,,0.04,meteohub,2013-03-17 01:43:00,
2013-03-16 18:48:00,41.9,38.7,29.53,SW,225,11.0,17.0,88,0.02,,,0.04,meteohub,2013-03-17 01:48:00,
2013-03-16 18:53:00,41.9,38.7,29.53,SW,225,8.0,17.0,88,0.02,,,0.04,meteohub,2013-03-17 01:53:00,
2013-03-16 18:59:00,41.5,38.5,29.53,West,270,6.0,17.0,89,0.01,,,0.04,meteohub,2013-03-17 01:59:00,
2013-03-16 19:04:00,41.4,38.7,29.53,South,180,6.0,15.0,90,0.01,,,0.04,meteohub,2013-03-17 02:04:00,
2013-03-16 19:09:00,41.4,38.3,29.54,West,270,8.0,11.0,89,0.00,,,0.04,meteohub,2013-03-17 02:09:00,
2013-03-16 19:14:00,41.2,38.1,29.54,SW,225,9.0,17.0,89,0.00,,,0.04,meteohub,2013-03-17 02:14:00,
2013-03-16 19:19:00,41.4,38.3,29.54,SW,225,10.0,17.0,89,0.00,,,0.04,meteohub,2013-03-17 02:19:00,
2013-03-16 19:24:00,41.5,38.5,29.53,SW,225,8.0,17.0,89,0.00,,,0.04,meteohub,2013-03-17 02:24:00,
2013-03-16 19:29:00,41.5,38.5,29.54,SW,225,17.0,18.0,89,0.00,,,0.04,meteohub,2013-03-17 02:29:00,
2013-03-16 19:35:00,41.5,38.5,29.53,SW,225,10.0,18.0,89,0.00,,,0.04,meteohub,2013-03-17 02:35:00,
2013-03-16 19:40:00,41.4,38.7,29.54,SW,225,5.0,17.0,90,0.00,,,0.04,meteohub,2013-03-17 02:40:00,
2013-03-16 19:45:00,40.6,38.3,29.54,SW,225,5.0,14.0,91,0.00,,,0.04,meteohub,2013-03-17 02:45:00,
2013-03-16 19:50:00,40.5,38.3,29.54,SW,225,4.0,10.0,92,0.00,,,0.04,meteohub,2013-03-17 02:50:00,
2013-03-16 19:56:00,40.1,38.5,29.54,SW,225,4.0,7.0,94,0.00,,,0.04,meteohub,2013-03-17 02:56:00,
2013-03-16 20:01:00,40.1,38.5,29.55,SW,225,4.0,7.0,94,0.00,,,0.04,meteohub,2013-03-17 03:01:00,
2013-03-16 20:06:00,40.1,38.5,29.55,SW,225,4.0,7.0,94,0.00,,,0.04,meteohub,2013-03-17 03:06:00,
2013-03-16 20:12:00,40.3,39.0,29.55,SW,225,4.0,7.0,95,0.00,,,0.04,meteohub,2013-03-17 03:12:00,
2013-03-16 20:17:00,40.5,39.2,29.55,West,270,5.0,6.0,95,0.00,,,0.04,meteohub,2013-03-17 03:17:00,
2013-03-16 20:22:00,40.6,39.4,29.56,SW,225,6.0,8.0,95,0.00,,,0.04,meteohub,2013-03-17 03:22:00,
2013-03-16 20:27:00,40.8,39.6,29.56,SW,225,5.0,8.0,95,0.00,,,0.04,meteohub,2013-03-17 03:27:00,
2013-03-16 20:32:00,41.0,39.7,29.56,West,270,7.0,8.0,95,0.00,,,0.04,meteohub,2013-03-17 03:32:00,
2013-03-16 20:37:00,41.2,39.6,29.56,SW,225,8.0,9.0,94,0.01,,,0.05,meteohub,2013-03-17 03:37:00,
2013-03-16 20:42:00,41.2,39.6,29.56,SW,225,6.0,10.0,94,0.01,,,0.05,meteohub,2013-03-17 03:42:00,
2013-03-16 20:47:00,41.2,39.6,29.57,SW,225,6.0,11.0,94,0.01,,,0.05,meteohub,2013-03-17 03:47:00,
2013-03-16 20:52:00,41.2,39.6,29.57,SW,225,11.0,11.0,94,0.01,,,0.05,meteohub,2013-03-17 03:52:00,
2013-03-16 20:58:00,41.2,39.6,29.57,West,270,7.0,11.0,94,0.01,,,0.05,meteohub,2013-03-17 03:58:00,
2013-03-16 21:00:00,41.2,39.6,29.58,SW,225,6.0,11.0,94,0.01,,,0.05,meteohub,2013-03-17 04:00:00,
2013-03-16 21:01:00,41.2,39.6,29.58,SW,225,5.0,11.0,94,0.01,,,0.05,meteohub,2013-03-17 04:01:00,
2013-03-16 21:02:00,41.4,39.7,29.58,SW,225,6.0,11.0,94,0.01,,,0.05,meteohub,2013-03-17 04:02:00,
2013-03-16 21:07:00,41.5,39.7,29.58,SW,225,9.0,17.0,93,0.01,,,0.05,meteohub,2013-03-17 04:07:00,
2013-03-16 21:12:00,41.5,39.7,29.58,SW,225,8.0,17.0,93,0.01,,,0.05,meteohub,2013-03-17 04:12:00,
2013-03-16 21:17:00,41.4,39.6,29.58,SW,225,7.0,17.0,93,0.01,,,0.05,meteohub,2013-03-17 04:17:00,
2013-03-16 21:22:00,41.2,39.6,29.58,West,270,6.0,12.0,94,0.01,,,0.05,meteohub,2013-03-17 04:22:00,
2013-03-16 21:27:00,41.0,39.7,29.58,South,180,8.0,12.0,95,0.01,,,0.05,meteohub,2013-03-17 04:27:00,
2013-03-16 21:33:00,41.2,39.9,29.58,West,270,8.0,12.0,95,0.02,,,0.06,meteohub,2013-03-17 04:33:00,
2013-03-16 21:38:00,41.0,39.9,29.59,NW,315,10.0,12.0,96,0.01,,,0.06,meteohub,2013-03-17 04:38:00,
2013-03-16 21:43:00,40.8,39.7,29.59,SW,225,6.0,12.0,96,0.01,,,0.06,meteohub,2013-03-17 04:43:00,
2013-03-16 21:49:00,40.6,39.9,29.59,SW,225,6.0,10.0,97,0.02,,,0.07,meteohub,2013-03-17 04:49:00,
2013-03-16 21:54:00,40.5,39.2,29.58,South,180,11.0,11.0,95,0.02,,,0.07,meteohub,2013-03-17 04:54:00,
2013-03-16 21:59:00,40.6,39.4,29.59,SW,225,6.0,10.0,95,0.02,,,0.07,meteohub,2013-03-17 04:59:00,
2013-03-16 22:04:00,40.6,39.0,29.59,SW,225,6.0,11.0,94,0.02,,,0.07,meteohub,2013-03-17 05:04:00,
2013-03-16 22:09:00,40.5,38.8,29.59,West,270,9.0,14.0,94,0.02,,,0.07,meteohub,2013-03-17 05:09:00,
2013-03-16 22:14:00,40.5,39.2,29.59,SW,225,12.0,14.0,95,0.02,,,0.07,meteohub,2013-03-17 05:14:00,
2013-03-16 22:20:00,40.3,38.5,29.60,SW,225,8.0,14.0,93,0.02,,,0.07,meteohub,2013-03-17 05:20:00,
2013-03-16 22:25:00,40.3,37.9,29.60,SW,225,8.0,12.0,91,0.02,,,0.07,meteohub,2013-03-17 05:25:00,
2013-03-16 22:30:00,40.1,37.8,29.60,SW,225,14.0,14.0,91,0.01,,,0.07,meteohub,2013-03-17 05:30:00,
2013-03-16 22:35:00,39.9,37.8,29.60,SW,225,8.0,14.0,92,0.01,,,0.07,meteohub,2013-03-17 05:35:00,
2013-03-16 22:40:00,39.7,37.4,29.60,SW,225,8.0,14.0,91,0.01,,,0.07,meteohub,2013-03-17 05:40:00,
2013-03-16 22:46:00,39.7,37.0,29.61,SW,225,4.0,9.0,90,0.00,,,0.07,meteohub,2013-03-17 05:46:00,
2013-03-16 22:51:00,39.6,37.2,29.61,West,270,6.0,8.0,91,0.00,,,0.07,meteohub,2013-03-17 05:51:00,
2013-03-16 22:56:00,39.2,36.9,29.61,SE,135,3.0,8.0,91,0.00,,,0.07,meteohub,2013-03-17 05:56:00,
2013-03-16 23:01:00,39.0,36.7,29.62,SW,225,3.0,8.0,91,0.00,,,0.07,meteohub,2013-03-17 06:01:00,
2013-03-16 23:07:00,38.8,36.7,29.62,SW,225,4.0,7.0,92,0.00,,,0.07,meteohub,2013-03-17 06:07:00,
2013-03-16 23:12:00,39.0,36.9,29.63,SW,225,2.0,8.0,92,0.00,,,0.07,meteohub,2013-03-17 06:12:00,
2013-03-16 23:17:00,39.2,36.9,29.63,SW,225,5.0,8.0,91,0.00,,,0.07,meteohub,2013-03-17 06:17:00,
2013-03-16 23:22:00,39.6,36.9,29.63,West,270,5.0,13.0,90,0.00,,,0.07,meteohub,2013-03-17 06:22:00,
2013-03-16 23:27:00,39.4,37.0,29.64,SW,225,4.0,13.0,91,0.00,,,0.07,meteohub,2013-03-17 06:27:00,
2013-03-16 23:32:00,39.4,37.2,29.64,SW,225,2.0,13.0,92,0.00,,,0.07,meteohub,2013-03-17 06:32:00,
2013-03-16 23:37:00,39.2,37.4,29.63,South,180,2.0,9.0,93,0.00,,,0.07,meteohub,2013-03-17 06:37:00,
2013-03-16 23:42:00,39.2,37.4,29.63,SW,225,4.0,4.0,93,0.00,,,0.07,meteohub,2013-03-17 06:42:00,
2013-03-16 23:47:00,39.2,37.6,29.63,SW,225,2.0,4.0,94,0.00,,,0.07,meteohub,2013-03-17 06:47:00,
2013-03-16 23:52:00,39.2,37.6,29.64,North,0,3.0,4.0,94,0.00,,,0.07,meteohub,2013-03-17 06:52:00,
2013-03-16 23:57:00,38.8,37.2,29.64,NE,45,4.0,4.0,94,0.00,,,0.07,meteohub,2013-03-17 06:57:00,